Temperature
17 17 17 17 17 15 14 14 13 14 14 14 14 14 15 16 16 15 15 15 15 14 14 14 13 13 13 12 12 11 11 11 11 11 11 11 11 11 11 11 11 11 11 11
18 18 17 18 17 16 15 15 14 14 14 14 16 16 16 16 16 16 15 15 15 15 14 14 14 13 13 12 12 11 11 11 11 11 11 11 11 11 11 11 11 11 11 11
16 16 18 18 18 17 16 15 15 15 15 15 15 15 17 17 17 16 16 16 15 15 15 14 14 13 13 13 12 12 11 11 11 11 11 11 11 11 11 11 11 11 11 11
14 17 19 18 18 17 17 16 15 15 15 16 17 18 18 18 18 17 16 16 15 15 15 14 14 13 13 13 12 12 11 11 11 11 11 11 10 11 11 11 11 11 11 11
13 16 16 18 19 18 18 18 17 15 15 17 16 16 18 19 18 17 17 16 16 15 15 14 14 14 13 13 12 12 12 11 11 11 11 11 10 10 10 10 10 11 11 11
13 17 18 19 19 19 19 19 19 18 17 16 15 14 16 19 19 18 17 16 16 15 15 15 14 14 13 13 12 12 12 11 11 11 11 11 10 10 10 10 10 10 10 10
14 15 15 16 18 19 19 18 20 20 19 17 16 17 20 19 19 18 17 17 16 15 15 15 14 14 14 13 13 12 12 12 11 11 11 11 10 10 10 10 10 10 10 10
12 15 17 18 17 17 18 20 21 21 21 20 20 20 19 19 19 18 17 17 16 16 15 15 15 14 14 13 13 13 12 12 12 11 11 11 11 11 10 10 11 11 11 11
13 15 17 18 18 19 19 20 20 21 21 21 21 20 20 19 19 18 18 17 16 16 16 15 15 15 14 14 13 13 12 12 12 11 11 11 11 11 11 11 11 11 11 11
13 15 17 17 18 19 19 20 20 20 21 21 21 21 20 20 19 18 18 17 17 16 16 16 15 15 15 14 14 13 13 13 12 12 12 11 11 11 11 11 11 11 11 11
15 15 16 18 17 18 20 20 21 21 21 20 20 20 20 20 19 19 18 18 17 17 16 16 16 16 15 15 14 14 13 13 12 12 12 12 11 11 11 11 11 11 11 11
14 14 13 15 16 17 19 20 20 20 20 20 20 20 20 20 19 19 18 18 17 17 17 17 16 16 16 15 15 14 14 13 13 13 12 12 12 11 11 11 11 11 11 11
13 13 14 14 15 17 18 19 19 19 19 19 19 19 19 19 19 19 18 18 17 17 17 17 17 16 16 16 15 15 14 14 13 13 13 12 12 12 11 11 11 11 11 11
13 14 14 14 14 16 17 17 18 18 18 18 18 18 18 18 18 18 18 18 18 17 17 17 17 17 17 16 16 15 15 14 14 13 13 13 12 12 12 11 11 11 11 11
13 13 13 13 14 15 16 17 17 17 17 17 17 17 18 18 18 18 18 18 18 18 17 17 17 17 17 16 16 16 15 15 15 14 14 13 13 12 12 12 12 12 11 11
12 12 12 13 13 14 14 15 15 14 15 15 16 16 16 17 17 17 17 17 17 17 17 17 17 17 17 16 16 16 16 16 15 15 14 14 13 13 12 12 12 12 12 12
12 11 11 11 11 12 12 12 12 12 13 13 14 14 15 16 16 17 17 17 16 16 16 16 17 17 17 17 16 16 16 16 16 15 15 14 14 14 13 13 12 12 12 12
11 10 10 10 10 10 10 11 11 11 11 12 12 13 13 14 14 15 15 15 16 16 16 16 16 16 16 16 16 16 16 16 16 16 15 15 15 14 14 13 13 13 12 12
9 9 9 9 9 9 9 9 10 10 10 11 11 11 11 12 12 13 13 14 14 15 15 15 15 15 16 16 16 16 16 16 16 16 16 15 15 14 14 14 13 13 13 12
8 8 8 8 8 8 8 8 8 9 9 9 10 10 10 10 11 11 12 12 11 12 12 13 14 14 15 15 15 15 15 16 16 16 15 15 15 15 14 14 14 14 13 13
8 8 7 7 7 7 7 7 8 8 8 8 8 8 8 8 9 9 10 10 10 11 11 12 13 13 14 14 14 14 15 15 15 15 15 15 15 15 15 14 14 14 14 13
7 7 7 7 7 7 7 7 7 7 7 7 7 7 7 7 8 8 8 8 9 9 10 10 11 11 12 13 13 14 14 14 14 14 14 15 15 15 14 14 14 14 14 14
7 7 6 6 6 6 6 6 6 6 6 6 6 6 6 6 6 6 7 7 7 7 8 9 9 10 11 11 12 12 13 13 13 13 14 14 14 14 14 14 14 14 14 14
6 6 6 6 6 6 6 5 5 5 5 5 5 5 5 5 5 5 5 6 6 6 7 7 8 8 9 10 10 10 11 11 12 12 12 13 13 13 13 13 14 14 13 13
6 6 6 6 6 6 5 5 5 5 5 5 5 5 5 5 5 5 5 5 5 5 6 6 6 7 7 8 8 8 9 9 10 10 11 11 12 12 12 12 13 13 13 13
6 6 6 6 6 5 5 5 5 5 5 5 5 5 4 4 4 4 5 5 5 5 5 5 5 5 6 6 6 7 7 8 8 8 9 9 10 10 11 11 12 12 12 12
6 6 6 6 6 5 5 5 5 5 5 5 4 4 4 4 4 4 4 4 4 4 4 4 4 4 4 5 5 5 5 6 6 7 7 8 8 9 9 10 10 11 11 12
Wind_Speed
4 3 4 5 6 8 8 8 8 8 8 12 9 9 9 8 7 7 7 7 7 6 6 5 5 4 4 4 4 4 5 6 6 7 7 7 8 8 8 8 8 7 7 7
3 3 3 4 6 7 8 6 8 7 9 10 7 4 5 7 8 8 9 8 7 7 6 5 5 4 4 4 4 3 4 5 6 6 7 7 8 8 8 8 8 8 8 8
2 5 3 6 7 7 7 8 8 9 9 6 4 7 8 9 9 10 10 8 8 7 6 6 5 4 4 3 2 2 3 4 5 6 7 7 7 8 8 8 8 9 8 8
1 3 3 7 4 6 6 8 9 9 9 7 8 6 6 8 9 10 9 8 8 6 5 4 3 3 2 1 1 2 3 4 5 5 6 6 7 7 7 6 7 7 8 8
3 0 7 8 3 5 3 6 6 8 9 4 1 2 5 8 10 10 10 8 7 6 5 3 3 3 2 1 1 2 3 4 4 4 5 6 6 6 5 5 6 6 6 8
4 1 4 6 3 2 3 5 6 6 6 4 6 0 6 6 8 9 8 7 6 5 4 4 4 3 3 2 2 3 4 4 3 3 3 4 5 4 4 4 5 5 6 7
4 3 7 8 4 2 2 6 5 4 5 9 9 8 4 3 5 7 8 7 6 6 5 5 4 5 4 4 5 5 3 2 3 3 3 3 3 3 4 4 5 6 6 6
5 3 6 4 5 5 7 4 3 3 5 8 10 7 4 4 5 6 7 7 7 6 6 5 5 6 6 6 5 3 2 2 2 3 2 1 2 3 3 4 5 5 5 6
8 7 5 3 5 5 3 4 4 3 4 6 7 7 6 6 6 7 8 7 6 7 7 5 6 7 8 7 5 4 3 3 3 2 2 1 1 2 2 3 3 3 4 4
4 5 4 3 4 6 5 6 6 5 4 5 7 7 7 6 6 7 7 7 6 7 7 7 7 8 9 6 5 5 5 4 3 3 2 2 1 1 1 1 1 2 2 3
4 5 5 5 7 10 8 6 5 5 3 3 5 6 6 6 7 7 7 6 6 8 9 10 8 9 9 7 7 6 6 5 4 3 3 3 2 2 3 3 3 2 2 2
5 1 2 5 8 11 9 8 6 5 5 3 2 5 5 6 7 7 7 6 6 8 9 10 8 9 9 8 8 8 7 6 5 4 4 3 3 3 5 6 5 6 6 4
3 3 3 5 7 9 7 8 7 5 4 5 4 3 3 4 5 5 6 7 9 10 10 9 9 9 9 9 9 9 9 8 6 5 5 5 4 4 4 4 5 6 7 7
2 1 3 5 6 9 8 8 7 8 8 7 6 5 4 4 4 4 7 9 9 9 8 8 8 10 10 9 10 10 10 10 8 6 6 6 6 5 5 4 4 4 4 7
5 5 3 3 5 8 9 9 11 13 13 12 9 8 7 6 6 7 7 6 5 7 8 8 9 11 8 8 10 11 10 8 7 7 6 6 6 5 5 6 5 5 4 4
3 6 6 7 9 9 11 12 12 12 11 12 12 11 9 7 6 7 7 5 4 7 8 8 10 11 7 8 10 9 9 13 11 7 7 6 6 6 6 6 6 6 6 6
6 5 5 6 7 8 9 8 8 8 9 11 11 11 10 10 10 10 10 7 5 7 6 6 9 9 6 8 9 9 9 10 13 9 8 8 7 8 8 7 7 7 7 7
8 7 6 5 5 6 7 7 8 9 9 9 10 10 12 12 12 12 12 10 7 7 7 8 9 9 7 7 8 8 8 8 9 10 9 9 9 8 8 8 9 9 7 6
8 7 7 6 5 5 5 6 7 7 8 9 10 10 10 10 10 11 11 10 11 11 12 12 14 10 8 8 8 7 8 9 9 9 9 11 10 9 9 9 9 9 8 7
7 6 6 6 5 5 5 5 6 6 8 8 9 10 11 12 12 12 11 8 8 9 13 15 13 9 9 9 9 6 8 9 10 10 9 9 10 10 10 10 10 9 9 8
7 6 5 5 4 5 5 5 5 6 7 8 8 9 9 10 11 11 11 10 12 14 15 17 12 11 10 10 9 6 8 9 9 10 10 10 11 11 10 10 10 10 10 9
5 4 4 3 3 3 4 4 4 5 6 7 7 8 8 9 10 9 7 7 11 18 14 11 11 16 18 14 7 6 7 8 8 8 9 9 10 10 11 11 11 11 10 10
4 3 3 2 1 1 3 3 4 4 5 5 6 7 7 7 6 7 8 9 10 18 13 10 19 24 23 12 8 7 7 7 7 8 8 9 9 10 10 11 11 10 10 10
4 3 2 1 1 1 2 3 4 4 4 4 4 5 5 5 5 4 5 12 16 17 10 15 22 25 20 11 9 8 8 7 7 7 7 8 8 8 8 9 9 9 10 11
4 3 3 2 2 2 3 3 4 4 4 4 5 5 4 3 4 6 7 8 14 14 10 15 22 22 15 11 11 10 9 9 8 7 6 6 7 7 8 8 8 8 9 9
4 4 4 4 4 4 3 2 2 3 3 4 5 5 5 4 5 6 6 7 9 12 10 8 10 13 10 11 11 11 10 10 10 8 8 7 7 6 6 7 9 8 8 9
3 3 2 3 3 4 4 4 4 4 4 4 5 6 6 6 6 6 7 7 7 7 7 7 8 8 9 9 10 10 10 10 10 9 8 8 7 7 7 8 7 6 6 7
Wind_Direction
227 230 187 213 205 179 188 196 207 242 247 265 262 240 235 226 225 236 254 263 268 269 275 284 288 295 302 314 324 333 345 348 343 342 348 354 357 358 0 4 4 1 8 8
355 350 213 251 243 209 217 215 231 260 274 259 265 235 226 221 217 229 242 252 261 266 268 272 273 279 291 302 314 329 341 338 338 347 354 356 355 357 4 6 6 11 15 12
315 323 21 287 248 202 218 216 201 227 247 259 247 233 227 220 216 224 234 242 248 254 255 260 259 254 263 278 304 334 335 335 340 346 352 351 354 2 5 4 9 12 12 12
67 32 261 247 256 196 221 251 221 233 250 238 235 249 245 216 211 224 230 233 239 242 248 250 242 234 247 273 307 326 331 331 336 345 348 350 358 1 359 3 9 11 10 11
102 355 292 302 262 178 196 288 233 229 253 249 193 4 298 227 208 216 220 219 225 226 224 227 229 215 193 242 303 318 317 318 327 341 346 352 357 354 356 5 11 11 11 15
118 144 248 257 292 170 113 299 273 218 240 177 128 93 274 251 207 213 215 214 217 213 205 218 220 182 180 223 255 271 281 296 312 328 340 345 345 346 351 3 6 8 16 16
148 219 265 252 257 125 93 263 276 217 209 171 190 210 237 260 207 205 207 210 204 196 207 220 198 174 197 224 243 250 261 291 312 321 320 326 342 350 356 8 15 15 14 10
146 183 263 250 157 181 223 256 271 243 204 199 225 243 244 243 223 208 206 207 196 196 218 220 190 183 209 233 239 232 233 267 295 311 322 344 356 354 4 13 18 12 10 6
185 208 247 274 224 269 274 263 265 254 240 214 229 240 232 231 226 218 211 209 200 201 219 223 202 194 213 234 218 203 214 247 270 292 314 333 340 341 355 10 16 4 7 2
239 268 278 299 308 313 284 258 272 270 261 207 223 238 231 228 225 221 217 211 203 200 218 231 216 209 219 224 198 194 214 236 248 261 278 292 287 278 286 315 336 346 350 342
246 296 327 354 2 338 324 315 312 311 285 240 231 245 232 229 227 223 220 214 201 206 220 233 224 219 221 211 191 201 216 226 232 236 245 257 258 246 243 242 218 220 244 257
209 250 265 296 333 340 341 348 344 345 352 343 256 255 246 237 233 226 225 217 214 220 228 236 228 227 223 205 193 198 215 223 222 221 226 230 249 279 254 242 251 234 223 217
243 285 259 285 330 343 344 348 355 6 356 345 335 302 273 259 251 238 234 225 224 229 232 234 229 233 228 203 195 201 213 218 215 214 216 218 221 237 275 288 265 253 245 236
337 17 66 16 348 347 358 2 19 28 18 6 352 344 331 308 294 268 252 244 237 235 236 235 233 240 233 202 199 209 215 220 214 214 214 215 217 219 224 245 276 284 265 246
33 52 69 27 16 17 18 25 34 25 14 9 5 360 348 332 309 289 280 274 256 245 244 238 238 249 237 203 205 212 213 217 216 213 212 214 215 215 219 227 238 252 269 271
82 63 58 53 41 30 31 32 32 19 10 7 5 358 346 328 314 314 316 311 280 261 255 246 246 252 237 209 211 217 220 222 211 210 211 211 211 214 220 224 232 238 244 242
119 86 60 53 42 35 32 28 23 12 9 8 359 353 355 358 355 347 338 327 293 277 279 271 267 269 247 220 216 221 220 222 217 212 213 214 213 216 219 219 225 233 241 230
110 111 107 96 75 53 34 25 21 17 11 359 358 6 12 10 359 346 339 337 336 326 322 312 302 297 274 242 228 226 222 220 212 214 217 217 218 217 216 219 224 232 242 239
104 102 93 83 76 66 44 24 14 10 7 7 10 10 7 2 353 347 348 357 360 346 334 324 318 309 291 270 250 233 226 224 221 220 218 219 220 219 217 221 226 229 232 228
106 102 95 82 69 60 44 22 14 16 10 9 12 11 8 1 355 352 353 0 359 341 331 334 330 319 307 294 272 247 235 231 228 227 222 219 220 223 222 223 224 226 227 226
115 105 94 81 66 50 37 22 19 14 5 8 12 7 358 352 354 357 360 358 349 343 340 340 339 331 324 317 294 264 246 240 235 232 228 225 225 225 225 225 225 226 226 225
127 115 103 87 67 36 12 11 13 8 4 3 3 360 357 354 352 352 352 341 333 342 346 341 340 341 341 331 314 291 268 254 247 241 236 233 229 228 228 226 226 227 226 224
147 142 131 113 86 5 351 359 357 353 352 349 347 347 344 335 336 345 342 337 336 346 349 343 347 349 349 342 332 320 302 282 267 256 248 242 238 235 234 230 228 226 224 223
164 166 169 163 123 52 344 324 328 323 319 316 318 320 322 327 327 319 308 329 344 348 347 346 353 357 356 351 343 336 327 315 299 282 269 257 249 244 241 239 236 232 228 225
179 184 186 184 203 234 253 286 311 316 321 316 312 309 304 287 287 305 315 323 338 347 343 347 354 356 357 349 347 343 336 331 327 318 303 287 270 257 250 244 242 240 236 232
188 200 212 216 220 230 236 245 265 283 295 305 306 301 303 300 297 302 310 317 324 337 339 336 340 347 347 346 345 343 341 338 336 332 325 317 306 293 278 265 254 248 244 240
206 213 224 250 248 227 221 226 240 261 263 265 281 289 295 300 302 306 309 312 316 321 322 325 330 334 336 339 340 341 341 341 340 338 336 332 326 316 304 290 278 267 258 250
Height
1547 1545 1546 1546 1548 1553 1556 1558 1562 1555 1551 1539 1533 1531 1530 1531 1533 1534 1534 1535 1535 1534 1533 1532 1530 1528 1526 1523 1521 1518 1515 1513 1510 1507 1504 1500 1497 1494 1491 1487 1484 1481 1479 1477
1545 1543 1544 1545 1543 1546 1549 1549 1550 1548 1544 1529 1527 1527 1527 1528 1530 1531 1532 1532 1533 1532 1532 1530 1529 1527 1525 1523 1521 1518 1516 1513 1511 1508 1505 1502 1499 1496 1493 1489 1487 1484 1481 1479
1554 1548 1544 1548 1539 1541 1541 1540 1541 1543 1535 1526 1526 1525 1525 1525 1527 1528 1529 1530 1531 1531 1530 1529 1528 1527 1525 1523 1521 1518 1516 1514 1511 1509 1506 1503 1501 1498 1495 1492 1489 1486 1484 1481
1558 1551 1554 1543 1530 1532 1534 1533 1532 1530 1526 1524 1524 1523 1523 1524 1524 1525 1527 1528 1529 1529 1529 1528 1527 1526 1524 1522 1520 1518 1516 1514 1512 1510 1507 1505 1502 1499 1497 1494 1491 1489 1486 1484
1562 1559 1554 1537 1528 1529 1531 1530 1524 1524 1522 1522 1522 1522 1521 1521 1522 1523 1525 1526 1527 1527 1527 1527 1526 1525 1523 1522 1520 1518 1517 1515 1513 1511 1509 1506 1504 1501 1499 1496 1494 1491 1489 1487
1561 1555 1554 1538 1526 1525 1529 1531 1521 1520 1519 1520 1522 1527 1522 1518 1519 1521 1522 1524 1525 1526 1526 1526 1525 1524 1523 1521 1520 1518 1517 1515 1513 1512 1510 1508 1506 1503 1501 1498 1496 1494 1492 1490
1559 1557 1550 1529 1525 1527 1538 1535 1519 1518 1517 1518 1519 1519 1518 1517 1518 1519 1520 1522 1523 1524 1524 1524 1524 1523 1522 1521 1519 1518 1517 1515 1514 1512 1511 1509 1507 1505 1503 1500 1498 1496 1494 1493
1558 1556 1547 1523 1524 1528 1526 1518 1517 1517 1516 1516 1515 1515 1516 1516 1517 1518 1519 1520 1521 1522 1522 1523 1522 1522 1521 1520 1519 1518 1517 1515 1514 1513 1511 1510 1508 1506 1504 1502 1501 1499 1497 1495
1541 1537 1526 1522 1521 1520 1519 1517 1516 1516 1515 1514 1514 1514 1514 1514 1515 1516 1517 1518 1519 1519 1520 1520 1520 1520 1520 1519 1518 1517 1516 1515 1514 1513 1511 1510 1509 1507 1505 1504 1502 1500 1499 1497
1532 1524 1521 1520 1519 1517 1516 1515 1514 1514 1513 1513 1512 1512 1512 1512 1513 1514 1515 1515 1516 1517 1517 1518 1518 1518 1518 1518 1517 1516 1515 1514 1513 1512 1511 1510 1509 1507 1506 1505 1503 1502 1500 1499
1526 1522 1519 1518 1517 1515 1514 1513 1512 1512 1511 1511 1510 1510 1510 1510 1511 1511 1512 1513 1514 1514 1514 1515 1515 1515 1515 1515 1515 1514 1513 1513 1512 1511 1510 1509 1508 1507 1506 1505 1504 1502 1501 1499
1523 1522 1521 1519 1518 1515 1513 1512 1511 1510 1509 1509 1509 1508 1508 1508 1508 1509 1509 1510 1510 1511 1511 1511 1512 1512 1512 1512 1512 1511 1511 1511 1510 1509 1509 1508 1507 1506 1505 1504 1503 1502 1501 1500
1519 1519 1519 1518 1517 1515 1513 1512 1511 1510 1509 1508 1507 1507 1506 1506 1506 1506 1506 1506 1507 1507 1507 1508 1508 1508 1509 1509 1509 1508 1508 1508 1507 1507 1506 1505 1505 1504 1503 1503 1502 1501 1500 1499
1516 1517 1517 1517 1516 1514 1513 1511 1510 1509 1508 1507 1506 1505 1504 1503 1503 1502 1502 1502 1503 1503 1503 1504 1504 1504 1505 1505 1505 1504 1504 1504 1504 1503 1503 1503 1502 1501 1501 1500 1500 1499 1499 1498
1515 1515 1516 1516 1515 1513 1512 1510 1508 1507 1506 1505 1504 1503 1502 1501 1500 1499 1499 1499 1498 1498 1498 1499 1499 1499 1500 1500 1500 1499 1499 1499 1500 1499 1499 1499 1499 1498 1498 1497 1497 1496 1496 1496
1514 1515 1515 1514 1513 1512 1511 1509 1507 1506 1505 1504 1503 1501 1500 1499 1498 1496 1495 1494 1494 1493 1493 1493 1493 1494 1494 1494 1494 1494 1494 1494 1494 1494 1494 1494 1494 1494 1494 1493 1493 1493 1493 1493
1512 1513 1513 1513 1512 1511 1510 1509 1508 1507 1506 1504 1502 1500 1498 1496 1494 1493 1491 1490 1489 1489 1488 1488 1487 1488 1488 1488 1488 1488 1488 1488 1488 1488 1489 1489 1489 1489 1489 1489 1488 1488 1488 1489
1510 1511 1512 1512 1512 1511 1511 1510 1508 1507 1505 1504 1502 1500 1497 1494 1492 1490 1489 1487 1485 1484 1483 1482 1482 1481 1481 1481 1481 1480 1481 1481 1481 1481 1482 1482 1483 1483 1483 1483 1483 1483 1483 1484
1510 1511 1511 1512 1511 1511 1510 1509 1508 1506 1505 1503 1501 1498 1496 1494 1492 1489 1487 1484 1481 1479 1478 1477 1476 1475 1474 1473 1473 1473 1473 1473 1473 1474 1475 1475 1476 1476 1476 1476 1476 1476 1477 1477
1509 1510 1511 1511 1511 1510 1509 1508 1507 1506 1504 1502 1500 1497 1495 1492 1490 1487 1485 1483 1480 1477 1475 1472 1470 1468 1467 1466 1466 1465 1465 1465 1465 1465 1466 1467 1467 1468 1468 1469 1469 1469 1470 1470
1508 1509 1510 1510 1509 1509 1508 1507 1506 1504 1503 1501 1498 1496 1494 1491 1489 1486 1482 1480 1477 1474 1472 1469 1466 1463 1461 1459 1458 1457 1457 1456 1456 1456 1457 1458 1459 1459 1460 1460 1461 1461 1462 1462
1507 1507 1508 1508 1508 1508 1507 1506 1505 1504 1502 1500 1498 1495 1493 1490 1487 1485 1482 1480 1476 1472 1469 1465 1462 1459 1456 1454 1451 1450 1449 1448 1448 1448 1448 1448 1449 1450 1451 1451 1452 1453 1453 1454
1505 1506 1506 1507 1507 1506 1506 1505 1504 1502 1501 1499 1497 1494 1492 1489 1486 1483 1480 1477 1474 1470 1467 1463 1459 1456 1452 1449 1446 1444 1442 1441 1440 1439 1439 1439 1440 1440 1441 1442 1443 1443 1444 1445
1503 1504 1504 1505 1505 1505 1504 1503 1502 1501 1500 1498 1496 1493 1491 1488 1486 1483 1480 1476 1473 1469 1465 1461 1457 1453 1449 1445 1442 1439 1437 1434 1433 1432 1431 1430 1430 1431 1432 1432 1433 1434 1435 1436
1501 1502 1502 1503 1503 1502 1502 1501 1501 1499 1498 1496 1494 1492 1490 1487 1485 1482 1479 1475 1472 1468 1463 1459 1455 1451 1447 1443 1439 1436 1433 1430 1428 1425 1424 1423 1422 1422 1422 1422 1423 1424 1425 1426
1499 1499 1500 1500 1500 1500 1500 1499 1498 1497 1496 1494 1492 1491 1488 1486 1483 1480 1477 1474 1470 1466 1462 1458 1454 1450 1445 1441 1437 1434 1430 1427 1423 1420 1418 1416 1415 1414 1413 1413 1414 1414 1415 1416
1496 1497 1497 1497 1498 1497 1497 1496 1495 1494 1493 1492 1490 1488 1486 1484 1481 1478 1475 1472 1468 1465 1461 1457 1453 1449 1444 1440 1436 1432 1428 1424 1420 1417 1414 1411 1409 1408 1406 1406 1405 1406 1406 1407